This is the latest recevied weather packets stored in our database for station/object 7M1JBF-11. If no packets are shown the sender has not sent any weather packets the latest 10 day(s).
| Time | Temp. | Humidity | Pressure | Rain* | Wind** | Luminosity | Snow |
|---|---|---|---|---|---|---|---|
| 1777700276 | 28.33° C | 100% | 1005.5 hPa | 0 mm | - | - | - |
| 1777699674 | 28.33° C | 100% | 1005.4 hPa | 0 mm | - | - | - |
| 1777699073 | 28.33° C | 100% | 1005.3 hPa | 0 mm | - | - | - |
| 1777698473 | 28.89° C | 100% | 1005.1 hPa | 0 mm | - | - | - |
| 1777697870 | 29.44° C | 100% | 1005.1 hPa | 0 mm | - | - | - |
| 1777696068 | 31.11° C | 100% | 1005 hPa | 0 mm | - | - | - |
| 1777695467 | 30.56° C | 100% | 1005 hPa | 0 mm | - | - | - |
| 1777693662 | 30° C | 100% | 1004.8 hPa | 0 mm | - | - | - |
| 1777693059 | 30° C | 100% | 1004.6 hPa | 0 mm | - | - | - |
| 1777692458 | 30° C | 100% | 1004.8 hPa | 0 mm | - | - | - |
| 1777691857 | 29.44° C | 100% | 1004.7 hPa | 0 mm | - | - | - |
| 1777691255 | 29.44° C | 100% | 1004.5 hPa | 0 mm | - | - | - |
| 1777690654 | 29.44° C | 100% | 1004.4 hPa | 0 mm | - | - | - |
| 1777690053 | 30° C | 100% | 1004.2 hPa | 0 mm | - | - | - |
| 1777688249 | 30° C | 100% | 1003.9 hPa | 0 mm | - | - | - |
| 1777687046 | 29.44° C | 100% | 1003.6 hPa | 0 mm | - | - | - |
| 1777686444 | 29.44° C | 100% | 1003.6 hPa | 0 mm | - | - | - |
| 1777685843 | 28.89° C | 100% | 1003.5 hPa | 0 mm | - | - | - |
| 1777685242 | 28.33° C | 100% | 1003.4 hPa | 0 mm | - | - | - |
| 1777684640 | 28.33° C | 100% | 1003.3 hPa | 0 mm | - | - | - |
| 1777684039 | 28.33° C | 100% | 1003.3 hPa | 0 mm | - | - | - |
| 1777683438 | 28.33° C | 100% | 1003.4 hPa | 0 mm | - | - | - |
| 1777682836 | 29.44° C | 100% | 1003.3 hPa | 0 mm | - | - | - |
| 1777682235 | 30° C | 100% | 1003.2 hPa | 0 mm | - | - | - |
| 1777681634 | 31.67° C | 100% | 1003.1 hPa | 0 mm | - | - | - |
* Rain since midnight (hover to see other rain measurements)
** Current wind speed in m/s (hover to see current wind gust speed)